Location: Grandview
(34.8900°N, 117.1058°W)
Time: 00:14:09
(UTC-07:00)

OTV 5 (USA 277) - Pass Details

Date: 09 October 2017
Orbit: 404 x 417 km, 43.0° (Epoch: 07 September)

Event Time Altitude Azimuth Distance (km) Brightness Sun altitude
Rises 19:02:11 0° 231° (SW) 2,340 ? -9.3°
Reaches altitude 10° 19:04:19 10° 227° (SW) 1,481 ? -9.7°
Maximum altitude 19:07:36 56° 148° (SSE) 500 ? -10.4°
Enters shadow 19:10:06 16° 73° (ENE) 1,175 ? -10.9°
